Regional Weather Roundup
Issued by NWS Cleveland, OH

Home | Current Version | Previous Version | Graphics & Text | Print | Product List | Glossary On
Versions: 1 2 3 4 5 6 7 8 9 10 11 12 13 14 15 16 17 18 19 20 21 22 23 24 25 26 27 28 29 30 31 32 33 34 35 36 37 38 39 40 41 42 43 44 45 46 47 48 49 50
143
ASUS41 KCLE 210110
RWRCLE
OHIO REGIONAL WEATHER ROUNDUP
NATIONAL WEATHER SERVICE CLEVELAND, OH
800 PM EST MON FEB 20 2017

NOTE: "FAIR" INDICATES FEW OR NO CLOUDS BELOW 12,000 FEET WITH NO
SIGNIFICANT WEATHER AND/OR OBSTRUCTIONS TO VISIBILITY.

OHZ001>008-015>018-024>027-034-035-043-044-210200-
   NORTHWEST OHIO

CITY           SKY/WX    TMP DP  RH WIND       PRES   REMARKS
DEFIANCE       CLOUDY    42  32  67 E10       30.15R
FINDLAY        CLOUDY    46  34  62 E9        30.14F
TOLEDO EXPRESS CLOUDY    38  33  82 E9        30.16F
TOLEDO EXEC    CLOUDY    37  33  85 E9        30.18F
LIMA           CLOUDY    52  41  66 SE10      30.13F
$$

OHZ009>014-019>023-028>033-038-089-210200-
   NORTHEAST OHIO

CITY           SKY/WX    TMP DP  RH WIND       PRES   REMARKS
CLE-HOPKINS    MOCLDY    42  32  67 NE5       30.21F
CLE-LAKEFRONT  PTCLDY    38  34  85 NE9       30.19S
CUY CO. ARPT   MOCLDY    45  36  70 E7        30.21S
LORAIN-ELYRIA  CLOUDY    38  31  76 NE5       30.19S
ASHTABULA      CLOUDY    39  30  70 NE5       30.23F
AKRON-CANTON   CLOUDY    51  32  48 E7        30.19S
WOOSTER        CLOUDY    45  36  70 CALM      30.18S
MANSFIELD      CLOUDY    49  36  61 SE6       30.18S
YOUNGSTOWN     CLOUDY    49  30  48 E6        30.21F
$$

OHZ042-051>053-060>062-070>072-077>081-210200-
  SOUTHWEST OHIO

CITY           SKY/WX    TMP DP  RH WIND       PRES   REMARKS
CINC-COVINGTON CLOUDY    57  46  66 E9        30.09F
CINC-LUNKEN    MOCLDY    53  46  77 NE3       30.11F
HAMILTON       MOCLDY    53  44  71 E6        30.12S
DAYTON         CLOUDY    54  41  61 E10       30.13S
WRIGHT-PAT AFB CLOUDY    53  45  74 E5        30.13S
DAYTON GENERAL PTCLDY    56  39  53 E7        30.11S
WILMINGTON     PTCLDY    52  39  61 SE6       30.13F
$$

OHZ036-037-039>041-045>050-054>059-063>069-073>076-082>088-210200-
  CENTRAL AND SOUTHEAST OHIO

CITY           SKY/WX    TMP DP  RH WIND       PRES   REMARKS
COLUMBUS       CLOUDY    53  41  63 E7        30.16R
OSU AIRPORT    CLOUDY    48  40  73 E7        30.15F
BOLTON FIELD   CLOUDY    53  41  64 E5        30.16F
RICKENBACK AFB CLOUDY    51  44  76 E10       30.15F
NEWARK         CLOUDY    46  39  76 CALM      30.17R
MARION         CLOUDY    50  35  56 SE8       30.16F
LANCASTER      CLOUDY    48  41  76 CALM      30.17R
ZANESVILLE     CLOUDY    53  39  59 NE3       30.17S
NEW PHILLY     NOT AVBL
$$




USA.gov is the U.S. government's official web portal to all federal, state and local government web resources and services.